Weather Roundup
Issued by NWS

Home | Current Version | Previous Version | Graphics & Text | Print | Product List | Glossary Off
Versions: 1 2 3 4 5 6 7 8 9 10 11 12 13 14 15 16 17 18 19 20 21 22 23 24 25 26 27 28 29 30 31 32 33 34 35 36 37 38 39 40 41 42 43 44 45 46 47 48 49 50

000
NZUS93 KARX 272159
HRRWXR

CURRENT HOURLY OBSERVATIONS ACROSS
MUCH OF THE UPPER MISSISSIPPI VALLEY
NATIONAL WEATHER SERVICE LA CROSSE WI
400 PM CST SAT DEC 27 2014


...SOUTHEAST MINNESOTA...


CITY           SKY/WX    TMP DP  RH WIND       PRES   REMARKS
ROCHESTER      MOCLDY    18  13  80 W12       30.09R WCI   5
ROCHESTER/MAYO CLOUDY    20  15  81 W10G20    30.09R WCI   9
WINONA         CLOUDY    28  21  74 W9        30.10R WCI  20
AUSTIN         PTCLDY    18  12  79 W9        30.11R WCI   6
ALBERT LEA     CLEAR     16  10  79 W7        30.12R WCI   6
DODGE CENTER   CLEAR     18  14  86 W13       30.09R WCI   4
PRESTON        CLOUDY    19  16  86 NW10      30.09R WCI   8
OWATONNA       CLEAR     16   9  73 W7        30.10R WCI   6
FARIBAULT      CLEAR     18  10  73 W7        30.11S WCI   8
$$

...ELSEWHERE IN MINNESOTA...


CITY           SKY/WX    TMP DP  RH WIND       PRES   REMARKS
MINNEAPOLIS    CLEAR     23  11  60 W10       30.09R WCI  12
INTNL FALLS    CLOUDY    15   6  67 W10       29.96R WCI   2
DULUTH         PTCLDY    22   5  48 W7        29.94F WCI  13
RED WING       CLEAR     25  16  68 W12       30.09R WCI  14
REDWOOD FALLS  CLEAR     17  10  74 SW8       30.12S WCI   7
MANKATO        CLEAR     16   5  62 W8        30.13R WCI   5
WORTHINGTON    CLEAR     16 -27  13 W12       30.12S WCI   3
FAIRMONT       CLEAR     19   9  63 W8        30.13S WCI   9
$$

...SOUTHWEST WISCONSIN...


CITY           SKY/WX    TMP DP  RH WIND       PRES   REMARKS
LA CROSSE      CLOUDY    28  22  78 W10       30.08R WCI  19
PRAIRIE DU CHI CLOUDY    30  23  74 W14       30.09R WCI  20
BOSCOBEL       MOCLDY    32  23  69 W7        30.09R WCI  26
LONE ROCK      NOT AVBL
PLATTEVILLE    CLOUDY    31  27  84 W7G16     30.07R WCI  25
FORT MC COY    CLOUDY    29  24  83 W8        30.05S WCI  21
VIROQUA        CLOUDY    27  27  99 W10G17    30.03R WCI  17
WIS DELLS      NOT AVBL
$$

...ELSEWHERE IN WISCONSIN...


CITY           SKY/WX    TMP DP  RH WIND       PRES   REMARKS
MILWAUKEE      CLOUDY    36  28  73 W20G25    29.99R WCI  25
MADISON        CLOUDY    33  27  78 W7        30.02R WCI  27
GREEN BAY      CLOUDY    35  32  88 NW10      29.93R WCI  27
EAU CLAIRE     PTCLDY    22  15  75 W7        30.05R WCI  13
BLACK RVR FLS  CLOUDY    28  23  83 W10       30.05R WCI  18
MEDFORD        CLOUDY    25  22  85 NW9       29.96R WCI  16
WAUSAU         CLOUDY    29  24  82 W10       29.95R WCI  20
WIS RAPIDS     CLOUDY    29  23  78 NW12      30.01R WCI  19
MARSHFIELD     CLOUDY    27  21  78 NW18      29.99R WCI  14
RICE LAKE      CLEAR     22  14  71 W6        30.05R WCI  15
$$

...NORTHEAST IOWA...


CITY           SKY/WX    TMP DP  RH WIND       PRES   REMARKS
DECORAH        NOT AVBL
MASON CITY     CLEAR     18  10  71 W12       30.15R WCI   5
CHARLES CITY   MOCLDY    21  19  93 NW14      30.13R WCI   8
OELWEIN        CLOUDY    25  21  86 NW16      30.12R WCI  12
$$

...ELSEWHERE IN IOWA...


CITY           SKY/WX    TMP DP  RH WIND       PRES   REMARKS
DES MOINES     MOCLDY    28  19  69 NW13      30.20R WCI  17
IOWA CITY      CLOUDY    30  23  75 NW12      30.17R WCI  20
FORT DODGE     CLEAR     19  12  73 W7        30.19R WCI  10
$$

...NORTHERN ILLINOIS...


CITY           SKY/WX    TMP DP  RH WIND       PRES   REMARKS
CHICAGO-OHARE  CLOUDY    35  28  75 W17G26    30.02R WCI  25
CHICAGO-MIDWAY CLOUDY    38  29  70 W15G26    30.02F WCI  29
MOLINE         CLOUDY    33  24  69 W12       30.13R WCI  24
ROCKFORD       CLOUDY    34  25  69 W14       30.08R WCI  25
PEORIA         CLOUDY    36  27  69 W10       30.15R WCI  28
$$

NOTE: "FAIR" INDICATES FEW OR NO CLOUDS BELOW 12,000 FEET WITH NO
SIGNIFICANT WEATHER AND/OR OBSTRUCTIONS TO VISIBILITY. WIND
SPEEDS ARE IN MILES-PER-HOUR.



USA.gov is the U.S. government's official web portal to all federal, state and local government web resources and services.